When you browse on this site, cookies collect data to enhance your experience and personalize the content and advertising you see.
Visit our Privacy Policy to learn more. By continuing to use the site, you agree to this use of cookies and data.
  • In Germany
  • List of Countries
  • For 7 days
  • Water Temperature
  • Satellite Maps
  • Weather Map
  • Weather Widgets
  • user-avatar
    Login

    Hourly Weather Canillo

    Today, 19 June, Wednesday

    Time Temperature Precipitation Wind Pressure Humidity
    00:00 +10°C° 0 mm 2 mps 616 mmHg 62%
    01:00 +10°C° 0 mm 2 mps 616 mmHg 58%
    02:00 +11°C° 0 mm 1 mps 616 mmHg 55%
    03:00 +10°C° 0 mm 1 mps 616 mmHg 52%
    04:00 +12°C° 0 mm 1 mps 617 mmHg 53%
    05:00 +13°C° 0 mm 1 mps 617 mmHg 55%
    06:00 +14°C° 0 mm 1 mps 618 mmHg 57%
    07:00 +15°C° 0 mm 1 mps 619 mmHg 49%
    08:00 +17°C° 0 mm 2 mps 620 mmHg 41%
    09:00 +19°C° 0 mm 2 mps 621 mmHg 33%
    10:00 +20°C° 0 mm 2 mps 621 mmHg 32%
    11:00 +20°C° 0 mm 3 mps 621 mmHg 32%
    12:00 +21°C° 0 mm 3 mps 621 mmHg 31%
    13:00 +21°C° 0 mm 3 mps 620 mmHg 33%
    14:00 +21°C° 0 mm 3 mps 620 mmHg 35%
    15:00 +21°C° 0 mm 3 mps 620 mmHg 36%
    16:00 +20°C° 0 mm 2 mps 619 mmHg 43%
    17:00 +19°C° 0 mm 2 mps 619 mmHg 50%
    18:00 +18°C° 0 mm 2 mps 619 mmHg 57%
    19:00 +15°C° 0 mm 1 mps 618 mmHg 64%
    20:00 +13°C° 0 mm 1 mps 618 mmHg 72%
    21:00 +11°C° 0 mm 1 mps 617 mmHg 80%
    22:00 +11°C° 0 mm 1 mps 617 mmHg 78%
    23:00 +10°C° 0 mm 0 mps 617 mmHg 76%

    Tomorrow, 20 June, Thursday

    Time Temperature Precipitation Wind Pressure Humidity
    00:00 +10°C° 0 mm 0 mps 617 mmHg 74%
    01:00 +10°C° 0 mm 0 mps 617 mmHg 74%
    02:00 +10°C° 0 mm 0 mps 617 mmHg 74%
    03:00 +9°C° 0 mm 0 mps 617 mmHg 74%
    04:00 +10°C° 0 mm 0 mps 618 mmHg 75%
    05:00 +11°C° 0 mm 0 mps 618 mmHg 77%
    06:00 +12°C° 0 mm 0 mps 619 mmHg 78%
    07:00 +14°C° 0.1 mm 1 mps 619 mmHg 73%
    08:00 +15°C° 0.1 mm 2 mps 620 mmHg 68%
    09:00 +16°C° 0.1 mm 2 mps 620 mmHg 62%
    10:00 +17°C° 0.1 mm 3 mps 621 mmHg 58%
    11:00 +18°C° 0.1 mm 3 mps 621 mmHg 54%
    12:00 +19°C° 0.1 mm 4 mps 621 mmHg 49%
    13:00 +18°C° 0.2 mm 3 mps 621 mmHg 54%
    14:00 +18°C° 0.2 mm 3 mps 620 mmHg 59%
    15:00 +17°C° 0.2 mm 3 mps 620 mmHg 64%
    16:00 +16°C° 0.9 mm 2 mps 619 mmHg 72%
    17:00 +15°C° 0.9 mm 2 mps 619 mmHg 81%
    18:00 +14°C° 0.9 mm 1 mps 618 mmHg 90%
    19:00 +13°C° 2.6 mm 1 mps 618 mmHg 91%
    20:00 +12°C° 2.6 mm 1 mps 618 mmHg 91%
    21:00 +11°C° 2.6 mm 1 mps 618 mmHg 92%
    22:00 +11°C° 0 mm 1 mps 618 mmHg 91%
    23:00 +10°C° 0 mm 1 mps 618 mmHg 90%

    Day after tomorrow, 21 June, Friday

    Time Temperature Precipitation Wind Pressure Humidity
    00:00 +10°C° 0 mm 1 mps 618 mmHg 88%
    01:00 +9°C° 0 mm 0 mps 618 mmHg 89%
    02:00 +9°C° 0 mm 0 mps 617 mmHg 89%
    03:00 +8°C° 0 mm 0 mps 617 mmHg 90%
    04:00 +9°C° 0 mm 0 mps 618 mmHg 90%
    05:00 +10°C° 0 mm 0 mps 618 mmHg 90%
    06:00 +11°C° 0 mm 0 mps 619 mmHg 90%
    07:00 +13°C° 0.3 mm 1 mps 619 mmHg 87%
    08:00 +14°C° 0.3 mm 1 mps 620 mmHg 83%
    09:00 +15°C° 0.3 mm 2 mps 620 mmHg 79%
    10:00 +15°C° 0.8 mm 2 mps 620 mmHg 80%
    11:00 +15°C° 0.8 mm 2 mps 620 mmHg 80%
    12:00 +15°C° 0.8 mm 2 mps 620 mmHg 81%
    13:00 +15°C° 1.2 mm 2 mps 620 mmHg 83%
    14:00 +14°C° 1.2 mm 2 mps 620 mmHg 85%
    15:00 +14°C° 1.2 mm 2 mps 619 mmHg 87%
    16:00 +13°C° 0.9 mm 1 mps 619 mmHg 88%
    17:00 +13°C° 0.9 mm 1 mps 619 mmHg 90%
    18:00 +12°C° 0.9 mm 1 mps 619 mmHg 92%
    19:00 +11°C° 1.7 mm 1 mps 619 mmHg 93%
    20:00 +10°C° 1.7 mm 1 mps 619 mmHg 94%
    21:00 +9°C° 1.7 mm 1 mps 619 mmHg 95%
    22:00 +9°C° 0.1 mm 1 mps 619 mmHg 95%
    23:00 +8°C° 0.1 mm 0 mps 619 mmHg 95%

    22 June, Saturday

    Time Temperature Precipitation Wind Pressure Humidity
    00:00 +8°C° 0.1 mm 0 mps 619 mmHg 95%
    01:00 +8°C° 0 mm 0 mps 619 mmHg 96%
    02:00 +9°C° 0 mm 1 mps 618 mmHg 96%
    03:00 +9°C° 0 mm 1 mps 618 mmHg 96%
    04:00 +9°C° 0 mm 1 mps 619 mmHg 96%
    05:00 +10°C° 0 mm 1 mps 619 mmHg 96%
    06:00 +11°C° 0 mm 1 mps 619 mmHg 96%
    07:00 +12°C° 0 mm 1 mps 620 mmHg 90%
    08:00 +14°C° 0 mm 1 mps 620 mmHg 85%
    09:00 +15°C° 0 mm 2 mps 621 mmHg 79%
    10:00 +16°C° 0.1 mm 2 mps 621 mmHg 72%
    11:00 +17°C° 0.1 mm 2 mps 622 mmHg 66%
    12:00 +18°C° 0.1 mm 2 mps 622 mmHg 59%
    13:00 +19°C° 0.1 mm 2 mps 622 mmHg 57%
    14:00 +19°C° 0.1 mm 2 mps 621 mmHg 55%
    15:00 +20°C° 0.1 mm 2 mps 621 mmHg 53%
    16:00 +19°C° 0 mm 2 mps 621 mmHg 58%
    17:00 +18°C° 0 mm 2 mps 620 mmHg 63%
    18:00 +18°C° 0 mm 1 mps 620 mmHg 68%
    19:00 +15°C° 0 mm 1 mps 619 mmHg 72%
    20:00 +13°C° 0 mm 1 mps 619 mmHg 76%
    21:00 +12°C° 0 mm 1 mps 618 mmHg 79%
    22:00 +11°C° 0 mm 1 mps 618 mmHg 79%
    23:00 +11°C° 0 mm 1 mps 618 mmHg 78%

    23 June, Sunday

    Time Temperature Precipitation Wind Pressure Humidity
    00:00 +11°C° 0 mm 1 mps 618 mmHg 77%
    01:00 +11°C° 0 mm 1 mps 618 mmHg 77%
    02:00 +10°C° 0 mm 2 mps 618 mmHg 76%
    03:00 +10°C° 0 mm 2 mps 618 mmHg 75%
    04:00 +12°C° 0 mm 2 mps 618 mmHg 73%
    05:00 +13°C° 0 mm 2 mps 618 mmHg 71%
    06:00 +14°C° 0 mm 2 mps 619 mmHg 68%
    07:00 +17°C° 0 mm 2 mps 620 mmHg 58%
    08:00 +19°C° 0 mm 2 mps 621 mmHg 48%
    09:00 +21°C° 0 mm 2 mps 622 mmHg 38%
    10:00 +23°C° 0 mm 2 mps 622 mmHg 37%
    11:00 +24°C° 0 mm 3 mps 622 mmHg 36%
    12:00 +25°C° 0 mm 3 mps 623 mmHg 34%
    13:00 +25°C° 0 mm 3 mps 622 mmHg 35%
    14:00 +25°C° 0 mm 3 mps 622 mmHg 36%
    15:00 +25°C° 0 mm 3 mps 622 mmHg 36%
    16:00 +24°C° 0 mm 2 mps 621 mmHg 44%
    17:00 +21°C° 0 mm 2 mps 621 mmHg 51%
    18:00 +20°C° 0 mm 2 mps 620 mmHg 58%
    19:00 +19°C° 0 mm 2 mps 620 mmHg 58%
    20:00 +17°C° 0 mm 2 mps 620 mmHg 59%
    21:00 +16°C° 0 mm 2 mps 619 mmHg 59%
    22:00 +16°C° 0 mm 2 mps 619 mmHg 54%
    23:00 +15°C° 0 mm 2 mps 620 mmHg 50%

    24 June, Monday

    Time Temperature Precipitation Wind Pressure Humidity
    00:00 +15°C° 0 mm 2 mps 620 mmHg 45%
    01:00 +15°C° 0 mm 2 mps 619 mmHg 46%
    02:00 +15°C° 0 mm 2 mps 619 mmHg 46%
    03:00 +15°C° 0 mm 2 mps 619 mmHg 47%
    04:00 +16°C° 0 mm 2 mps 619 mmHg 48%
    05:00 +16°C° 0 mm 2 mps 620 mmHg 50%
    06:00 +17°C° 0 mm 2 mps 620 mmHg 51%
    07:00 +19°C° 0 mm 2 mps 621 mmHg 46%
    08:00 +23°C° 0 mm 2 mps 622 mmHg 42%
    09:00 +25°C° 0 mm 2 mps 623 mmHg 37%
    10:00 +27°C° 0 mm 3 mps 624 mmHg 33%
    11:00 +28°C° 0 mm 4 mps 624 mmHg 28%
    12:00 +30°C° 0 mm 4 mps 625 mmHg 24%
    13:00 +30°C° 0 mm 4 mps 625 mmHg 24%
    14:00 +30°C° 0 mm 5 mps 624 mmHg 24%
    15:00 +30°C° 0 mm 5 mps 624 mmHg 24%
    16:00 +28°C° 0 mm 4 mps 623 mmHg 32%
    17:00 +26°C° 0 mm 3 mps 623 mmHg 40%
    18:00 +24°C° 0 mm 3 mps 622 mmHg 48%
    19:00 +21°C° 0 mm 3 mps 622 mmHg 48%
    20:00 +19°C° 0 mm 3 mps 621 mmHg 48%
    21:00 +17°C° 0 mm 3 mps 621 mmHg 48%
    22:00 +17°C° 0 mm 2 mps 621 mmHg 44%
    23:00 +17°C° 0 mm 2 mps 622 mmHg 40%
    Show more